Weather History for KRAC - May, 2013

Change the Weather History Date:

Thursday, May 9, 2013

  Actual Average Record
Temperature  
Mean Temperature 56 °F -  
Max Temperature 66 °F 61 °F 82 °F (1963)
Min Temperature 44 °F 44 °F 29 °F (1966)
Degree Days  
Heating Degree Days 9    
Growing Degree Days 6 (Base 50)    
Moisture  
Dew Point 43 °F    
Average Humidity 68    
Maximum Humidity 89    
Minimum Humidity 44    
Precipitation  
Precipitation 0.14 in - - ()
Sea Level Pressure  
Sea Level Pressure 29.96 in    
Wind  
Wind Speed 6 mph (NNE)    
Max Wind Speed 18 mph    
Max Gust Speed 25 mph    
Visibility 9 miles    
Events Rain    
Averages and records for this station are not official NWS values.
T = Trace of Precipitation, MM = Missing Value Source: NWS Daily Summary

Daily Weather History Graph

Daily Weather History Graph

Search for Another Location

Airport or City:

Trip Planner

Search our weather history database for the weather conditions in past years. The results will help you decide how hot, cold, wet, or windy it might be!

Date:

Astronomy

May. 09, 2013 Rise Set
Actual Time 5:35 AM CDT 8:00 PM CDT
Civil Twilight 5:03 AM CDT 8:32 PM CDT
Nautical Twilight 4:23 AM CDT 9:12 PM CDT
Astronomical Twilight 3:39 AM CDT 9:57 PM CDT
Moon 5:20 AM CDT (5/9) 7:55 PM CDT (5/9)
Length of Visible Light 15h 29m
Length of Day
14h 25m
Waning Crescent, 0% of the Moon is Illuminated
May 9
Waning Crescent
May 9
New
May 17
First Quarter
May 24
Full
May 31
Last Quarter

Hourly Weather History & Observations

Time (CDT) Temp. Windchill Dew Point Humidity Pressure Visibility Wind Dir Wind Speed Gust Speed Precip Events Conditions
12:53 AM 55.0 °F - 42.1 °F 62% 29.98 in 10.0 mi Calm Calm - N/A   Clear
1:53 AM 54.0 °F - 43.0 °F 66% 29.97 in 10.0 mi SW 3.5 mph - N/A   Clear
2:53 AM 57.0 °F - 39.9 °F 53% 29.96 in 10.0 mi SW 3.5 mph - N/A   Clear
3:53 AM 59.0 °F - 43.0 °F 55% 29.96 in 10.0 mi SW 4.6 mph - N/A   Clear
4:53 AM 57.0 °F - 43.0 °F 59% 29.96 in 10.0 mi NW 4.6 mph - N/A   Clear
5:53 AM 55.0 °F - 44.1 °F 67% 29.98 in 10.0 mi Calm Calm - N/A   Clear
6:53 AM 55.9 °F - 46.9 °F 72% 29.98 in 10.0 mi Calm Calm - N/A   Clear
7:53 AM 57.0 °F - 43.0 °F 59% 29.98 in 10.0 mi ESE 4.6 mph - N/A   Clear
8:53 AM 62.1 °F - 41.0 °F 46% 29.98 in 10.0 mi SE 5.8 mph - N/A   Scattered Clouds
9:53 AM 62.1 °F - 39.9 °F 44% 29.98 in 10.0 mi SSE 9.2 mph - N/A   Mostly Cloudy
10:53 AM 63.0 °F - 42.1 °F 46% 29.98 in 10.0 mi South 5.8 mph - N/A   Overcast
12:53 PM 66.0 °F - 46.0 °F 48% 29.96 in 10.0 mi South 6.9 mph - N/A   Overcast
1:53 PM 66.9 °F - 51.1 °F 57% 29.95 in 10.0 mi Calm Calm - 0.00 in Rain Light Rain
3:53 PM 63.0 °F - 46.9 °F 56% 29.92 in 9.0 mi Calm Calm - 0.00 in Rain Light Rain
4:53 PM 53.1 °F - 46.0 °F 77% 29.94 in 6.0 mi NNE 16.1 mph - 0.01 in Rain Light Rain
5:21 PM 50.0 °F - 44.6 °F 82% 29.95 in 2.0 mi NNE 10.4 mph - 0.06 in Rain Rain
5:31 PM 50.0 °F - 44.6 °F 82% 29.95 in 5.0 mi NNE 11.5 mph - 0.07 in Rain Light Rain
5:53 PM 51.1 °F - 44.1 °F 77% 29.95 in 7.0 mi NNE 6.9 mph - 0.07 in Rain Light Rain
6:53 PM 48.9 °F - 43.0 °F 80% 29.95 in 9.0 mi North 13.8 mph - 0.02 in Rain Light Rain
7:50 PM 48.2 °F - 42.8 °F 82% 29.94 in 10.0 mi NNE 18.4 mph 25.3 mph 0.00 in   Overcast
7:53 PM 48.0 °F - 43.0 °F 83% 29.94 in 10.0 mi NNE 17.3 mph 24.2 mph 0.00 in   Overcast
8:53 PM 46.0 °F 39.9 °F 41.0 °F 83% 29.95 in 10.0 mi NNE 13.8 mph 21.9 mph N/A   Overcast
9:14 PM 46.4 °F 40.1 °F 41.0 °F 81% 29.94 in 10.0 mi NNE 15.0 mph - N/A   Overcast
9:48 PM 46.4 °F 39.8 °F 41.0 °F 81% 29.94 in 10.0 mi NNE 16.1 mph 23.0 mph 0.01 in   Overcast
9:53 PM 46.0 °F 39.6 °F 41.0 °F 83% 29.95 in 10.0 mi NNE 15.0 mph 21.9 mph 0.01 in   Overcast
10:53 PM 44.1 °F 37.4 °F 41.0 °F 89% 29.94 in 6.0 mi NNE 13.8 mph 25.3 mph 0.03 in   Overcast